Weather History for Ironwood, MI

Change the Weather History Date:

Wednesday, March 19, 2014

  Actual Average Record
Temperature  
Mean Temperature 28 °F -  
Max Temperature 30 °F 34 °F 78 °F (2012)
Min Temperature 26 °F 15 °F 10 °F (1997)
Degree Days  
Heating Degree Days 37    
Moisture  
Dew Point 24 °F    
Average Humidity 85    
Maximum Humidity 93    
Minimum Humidity 74    
Precipitation  
Precipitation 0.00 in - - ()
Sea Level Pressure  
Sea Level Pressure 29.75 in    
Wind  
Wind Speed 5 mph (NW)    
Max Wind Speed 15 mph    
Max Gust Speed 18 mph    
Visibility 4 miles    
Events      
Averages and records for this station are not official NWS values.
T = Trace of Precipitation, MM = Missing Value Source: NWS Daily Summary

Daily Weather History Graph

Daily Weather History Graph

Search for Another Location

Airport:

Trip Planner

Search our weather history database for the weather conditions in past years. The results will help you decide how hot, cold, wet, or windy it might be!

Date:

Astronomy

Mar. 19, 2014 Rise Set
Actual Time 7:05 AM CDT 7:11 PM CDT
Civil Twilight 6:35 AM CDT 7:41 PM CDT
Nautical Twilight 6:00 AM CDT 8:17 PM CDT
Astronomical Twilight 5:23 AM CDT 8:53 PM CDT
Moon 10:43 PM CDT (3/19) 8:20 AM CDT (3/19)
Length of Visible Light 13h 06m
Length of Day
12h 06m
Waning Gibbous, 91% of the Moon is Illuminated
Mar 19
Waning Gibbous
Mar 23
Last Quarter
Mar 30
New
Apr 7
First Quarter
Apr 15
Full

Hourly Weather History & Observations

Time (CDT) Temp. Windchill Dew Point Humidity Pressure Visibility Wind Dir Wind Speed Gust Speed Precip Events Conditions
12:15 AM 30.2 °F 25.4 °F 26.6 °F 86% 29.77 in 1.5 mi East 4.6 mph - N/A   Overcast
12:35 AM 30.2 °F 26.7 °F 26.6 °F 86% 29.76 in 2.0 mi East 3.5 mph - N/A   Overcast
12:55 AM 30.2 °F 25.4 °F 26.6 °F 86% 29.75 in 2.0 mi ENE 4.6 mph - N/A   Overcast
1:15 AM 30.2 °F 26.7 °F 26.6 °F 86% 29.75 in 2.0 mi East 3.5 mph - N/A   Overcast
1:35 AM 30.2 °F 26.7 °F 26.6 °F 86% 29.74 in 2.5 mi East 3.5 mph - N/A   Overcast
1:55 AM 30.2 °F - 26.6 °F 86% 29.74 in 2.0 mi Calm Calm - N/A   Overcast
2:15 AM 30.2 °F 26.7 °F 26.6 °F 86% 29.74 in 2.5 mi NNE 3.5 mph - N/A   Overcast
2:35 AM 30.2 °F 25.4 °F 26.6 °F 86% 29.73 in 3.0 mi NNE 4.6 mph - N/A   Overcast
2:55 AM 30.2 °F 26.7 °F 26.6 °F 86% 29.73 in 3.0 mi North 3.5 mph - N/A   Overcast
3:15 AM 30.2 °F 25.4 °F 26.6 °F 86% 29.73 in 4.0 mi North 4.6 mph - N/A   Overcast
3:35 AM 28.4 °F 22.2 °F 26.6 °F 93% 29.72 in 2.5 mi North 5.8 mph - N/A   Overcast
3:55 AM 28.4 °F 23.3 °F 26.6 °F 93% 29.72 in 1.2 mi North 4.6 mph - N/A   Overcast
4:15 AM 28.4 °F 22.2 °F 26.6 °F 93% 29.72 in 1.2 mi North 5.8 mph - N/A   Overcast
4:35 AM 28.4 °F 24.6 °F 24.8 °F 86% 29.72 in 1.5 mi NNE 3.5 mph - N/A   Overcast
4:55 AM 28.4 °F - 26.6 °F 93% 29.72 in 1.8 mi Calm Calm - N/A   Overcast
5:15 AM 28.4 °F 24.6 °F 24.8 °F 86% 29.71 in 2.5 mi NNE 3.5 mph - N/A   Overcast
5:35 AM 28.4 °F - 24.8 °F 86% 29.71 in 5.0 mi Calm Calm - N/A   Overcast
5:55 AM 28.4 °F - 24.8 °F 86% 29.71 in 3.0 mi Calm Calm - N/A   Overcast
6:15 AM 28.4 °F - 26.6 °F 93% 29.71 in 1.8 mi Calm Calm - N/A   Overcast
6:35 AM 28.4 °F - 24.8 °F 86% 29.70 in 1.8 mi Calm Calm - N/A   Overcast
6:55 AM 28.4 °F - 24.8 °F 86% 29.70 in 2.0 mi Calm Calm - N/A   Overcast
7:15 AM 28.4 °F - 24.8 °F 86% 29.70 in 1.8 mi Calm Calm - N/A   Overcast
7:35 AM 28.4 °F - 24.8 °F 86% 29.70 in 1.5 mi Calm Calm - N/A   Overcast
7:55 AM 28.4 °F - 24.8 °F 86% 29.70 in 1.5 mi Calm Calm - N/A   Overcast
8:15 AM 28.4 °F - 24.8 °F 86% 29.70 in 1.8 mi Calm Calm - N/A   Overcast
8:35 AM 28.4 °F 24.6 °F 26.6 °F 93% 29.70 in 1.5 mi WNW 3.5 mph - N/A   Overcast
8:55 AM 28.4 °F 22.2 °F 24.8 °F 86% 29.70 in 2.0 mi NW 5.8 mph - N/A   Overcast
9:15 AM 28.4 °F 19.7 °F 26.6 °F 93% 29.70 in 3.0 mi NW 9.2 mph - N/A   Overcast
9:35 AM 28.4 °F 19.1 °F 24.8 °F 86% 29.71 in 1.8 mi NW 10.4 mph - N/A   Overcast
9:55 AM 28.4 °F 18.5 °F 26.6 °F 93% 29.71 in 2.0 mi NW 11.5 mph - N/A   Overcast
10:15 AM 28.4 °F 18.5 °F 24.8 °F 86% 29.71 in 2.5 mi NW 11.5 mph - N/A   Overcast
10:35 AM 26.6 °F 16.2 °F 24.8 °F 93% 29.72 in 1.8 mi NNW 11.5 mph 17.3 mph N/A   Overcast
10:55 AM 26.6 °F 16.2 °F 23.0 °F 86% 29.72 in 1.8 mi NW 11.5 mph - N/A   Overcast
11:15 AM 26.6 °F 16.8 °F 24.8 °F 93% 29.72 in 2.0 mi NW 10.4 mph - N/A   Overcast
11:35 AM 26.6 °F 16.2 °F 24.8 °F 93% 29.72 in 1.2 mi NNW 11.5 mph - N/A   Overcast
11:55 AM 26.6 °F 14.7 °F 23.0 °F 86% 29.73 in 1.5 mi NNW 15.0 mph 18.4 mph N/A   Overcast
12:15 PM 26.6 °F 16.2 °F 23.0 °F 86% 29.73 in 1.8 mi NNW 11.5 mph - N/A   Overcast
12:35 PM 26.6 °F 15.2 °F 21.2 °F 80% 29.73 in 4.0 mi NNW 13.8 mph 17.3 mph N/A   Overcast
12:55 PM 26.6 °F 17.5 °F 21.2 °F 80% 29.73 in 3.0 mi NNW 9.2 mph - N/A   Overcast
1:15 PM 26.6 °F 15.7 °F 21.2 °F 80% 29.73 in 2.0 mi NW 12.7 mph - N/A   Overcast
1:35 PM 26.6 °F 15.7 °F 21.2 °F 80% 29.73 in 2.5 mi NW 12.7 mph 16.1 mph N/A   Overcast
1:55 PM 26.6 °F 17.5 °F 21.2 °F 80% 29.74 in 2.5 mi NW 9.2 mph - N/A   Overcast
2:15 PM 26.6 °F 16.8 °F 21.2 °F 80% 29.74 in 2.5 mi NW 10.4 mph - N/A   Overcast
2:35 PM 26.6 °F 16.2 °F 21.2 °F 80% 29.74 in 2.5 mi NW 11.5 mph - N/A   Overcast
2:55 PM 26.6 °F 16.8 °F 21.2 °F 80% 29.74 in 2.0 mi NW 10.4 mph - N/A   Overcast
3:15 PM 26.6 °F 17.5 °F 21.2 °F 80% 29.74 in 3.0 mi NW 9.2 mph - N/A   Overcast
3:35 PM 26.6 °F 18.2 °F 23.0 °F 86% 29.74 in 3.0 mi NW 8.1 mph - N/A   Overcast
3:55 PM 26.6 °F 17.5 °F 23.0 °F 86% 29.74 in 3.0 mi NNW 9.2 mph - N/A   Overcast
4:15 PM 26.6 °F 15.7 °F 23.0 °F 86% 29.75 in 4.0 mi NW 12.7 mph - N/A   Overcast
4:35 PM 26.6 °F 17.5 °F 21.2 °F 80% 29.75 in 5.0 mi NW 9.2 mph - N/A   Overcast
4:55 PM 26.6 °F 17.5 °F 21.2 °F 80% 29.76 in 4.0 mi NW 9.2 mph - N/A   Overcast
5:15 PM 26.6 °F 19.1 °F 21.2 °F 80% 29.77 in 3.0 mi WNW 6.9 mph - N/A   Overcast
5:35 PM 26.6 °F 20.0 °F 21.2 °F 80% 29.77 in 3.0 mi NW 5.8 mph - N/A   Overcast
5:55 PM 26.6 °F 20.0 °F 21.2 °F 80% 29.78 in 3.0 mi NW 5.8 mph - N/A   Overcast
6:15 PM 26.6 °F 20.0 °F 21.2 °F 80% 29.78 in 2.5 mi WNW 5.8 mph - N/A   Overcast
6:35 PM 26.6 °F 19.1 °F 21.2 °F 80% 29.79 in 3.0 mi West 6.9 mph - N/A   Overcast
6:55 PM 26.6 °F 20.0 °F 21.2 °F 80% 29.79 in 2.5 mi West 5.8 mph - N/A   Overcast
7:15 PM 26.6 °F 20.0 °F 21.2 °F 80% 29.80 in 2.5 mi West 5.8 mph - N/A   Overcast
7:35 PM 26.6 °F 20.0 °F 23.0 °F 86% 29.80 in 4.0 mi WSW 5.8 mph - N/A   Overcast
7:55 PM 26.6 °F 20.0 °F 23.0 °F 86% 29.81 in 4.0 mi WSW 5.8 mph - N/A   Overcast
8:15 PM 26.6 °F 20.0 °F 23.0 °F 86% 29.81 in 4.0 mi WSW 5.8 mph - N/A   Overcast
8:35 PM 26.6 °F 21.2 °F 23.0 °F 86% 29.81 in 5.0 mi WSW 4.6 mph - N/A   Overcast
8:55 PM 26.6 °F 19.1 °F 23.0 °F 86% 29.82 in 8.0 mi WSW 6.9 mph - N/A   Overcast
9:15 PM 26.6 °F 18.2 °F 24.8 °F 93% 29.82 in 9.0 mi WSW 8.1 mph - N/A   Overcast
9:35 PM 28.4 °F 20.4 °F 23.0 °F 80% 29.82 in 10.0 mi West 8.1 mph - N/A   Overcast
9:55 PM 28.4 °F 21.2 °F 23.0 °F 80% 29.82 in 7.0 mi West 6.9 mph - N/A   Overcast
10:15 PM 28.4 °F 21.2 °F 23.0 °F 80% 29.83 in 7.0 mi West 6.9 mph - N/A   Overcast
10:35 PM 28.4 °F 21.2 °F 23.0 °F 80% 29.83 in 10.0 mi West 6.9 mph - N/A   Overcast
10:55 PM 28.4 °F 23.3 °F 21.2 °F 74% 29.83 in 10.0 mi West 4.6 mph - N/A   Overcast
11:15 PM 28.4 °F 21.2 °F 21.2 °F 74% 29.83 in 10.0 mi WNW 6.9 mph - N/A   Overcast
11:35 PM 28.4 °F 20.4 °F 21.2 °F 74% 29.83 in 10.0 mi WNW 8.1 mph - N/A   Overcast
11:55 PM 28.4 °F 21.2 °F 21.2 °F 74% 29.83 in 10.0 mi WNW 6.9 mph - N/A   Overcast